Weather History for KBIV - April, 2014

Change the Weather History Date:

Tuesday, April 29, 2014

  Actual Average Record
Temperature  
Mean Temperature 59 °F 53 °F  
Max Temperature 71 °F 63 °F 84 °F (1970)
Min Temperature 47 °F 43 °F 26 °F (1977)
Degree Days  
Heating Degree Days 6 12  
Month to date heating degree days 498 493  
Since 1 July heating degree days 6782 5867  
Cooling Degree Days 0 0  
Month to date cooling degree days 0 0  
Year to date cooling degree days 0 0  
Growing Degree Days 8 (Base 50)    
Moisture  
Dew Point 49 °F    
Average Humidity 65    
Maximum Humidity 83    
Minimum Humidity 47    
Precipitation  
Precipitation 0.45 in 0.15 in 0.78 in (1951)
Month to date precipitation 2.39 3.08  
Year to date precipitation 7.49 9.24  
Sea Level Pressure  
Sea Level Pressure 29.56 in    
Wind  
Wind Speed 9 mph (East)    
Max Wind Speed 35 mph    
Max Gust Speed 41 mph    
Visibility 8 miles    
Events Rain , Thunderstorm    
T = Trace of Precipitation, MM = Missing Value Source: NWS Daily Summary

Daily Weather History Graph

Daily Weather History Graph

Search for Another Location

Airport or City:

Trip Planner

Search our weather history database for the weather conditions in past years. The results will help you decide how hot, cold, wet, or windy it might be!

Date:

Astronomy

Apr. 29, 2014 Rise Set
Actual Time 6:41 AM EDT 8:42 PM EDT
Civil Twilight 6:10 AM EDT 9:13 PM EDT
Nautical Twilight 5:33 AM EDT 9:51 PM EDT
Astronomical Twilight 4:52 AM EDT 10:32 PM EDT
Moon 6:59 AM EDT (4/29) 9:22 PM EDT (4/29)
Length of Visible Light 15h 02m
Length of Day
14h 01m
New Moon, 0% of the Moon is Illuminated
Apr 29
New Moon
May 6
First Quarter
May 14
Full
May 21
Last Quarter
May 28
New

Hourly Weather History & Observations

Time (EDT) Temp. Dew Point Humidity Pressure Visibility Wind Dir Wind Speed Gust Speed Precip Events Conditions
12:53 AM 48.9 °F 43.0 °F 80% 29.67 in 10.0 mi East 17.3 mph - 0.07 in Rain Light Rain
1:53 AM 50.0 °F - N/A% 29.62 in 10.0 mi East 15.0 mph - 0.02 in   Overcast
2:53 AM 48.9 °F - N/A% 29.60 in 9.0 mi East 17.3 mph 26.5 mph 0.01 in Rain Light Rain
3:53 AM 48.0 °F - N/A% 29.53 in 9.0 mi East 12.7 mph - 0.02 in Rain Light Rain
4:04 AM 48.0 °F - N/A% 29.58 in 10.0 mi East 13.8 mph - 0.00 in   Overcast
4:45 AM 46.9 °F - N/A% 29.56 in 3.0 mi East 10.4 mph - 0.04 in Rain Light Rain
4:53 AM 46.9 °F - N/A% 29.56 in 3.0 mi East 11.5 mph - 0.06 in Rain Rain
5:18 AM 46.9 °F - N/A% 29.54 in 5.0 mi East 10.4 mph - 0.06 in Rain Light Rain
5:53 AM 46.9 °F - N/A% 29.54 in 4.0 mi East 9.2 mph - 0.10 in Rain Light Rain
6:04 AM 46.9 °F - N/A% 29.54 in 5.0 mi East 10.4 mph - 0.02 in Rain Light Rain
6:46 AM 48.0 °F - N/A% 29.52 in 3.0 mi ENE 9.2 mph - 0.02 in   Overcast
6:53 AM 48.0 °F - N/A% 29.46 in 3.0 mi East 10.4 mph - 0.02 in   Overcast
7:06 AM 48.0 °F - N/A% 29.49 in 4.0 mi ENE 12.7 mph - N/A   Haze
7:34 AM 48.0 °F - N/A% 29.54 in 6.0 mi East 10.4 mph - N/A   Haze
7:53 AM 48.9 °F - N/A% 29.55 in 7.0 mi ESE 4.6 mph - N/A   Overcast
9:53 AM 51.1 °F - N/A% 29.54 in 7.0 mi East 8.1 mph - N/A   Overcast
10:53 AM 55.0 °F - N/A% 29.54 in 8.0 mi ESE 8.1 mph - N/A   Overcast
11:53 AM 57.9 °F 52.0 °F 81% 29.56 in 10.0 mi ENE 3.5 mph - N/A   Overcast
12:09 PM 59.0 °F 52.0 °F 78% 29.56 in 10.0 mi Calm Calm - N/A   Overcast
12:43 PM 62.1 °F 53.1 °F 72% 29.56 in 10.0 mi East 5.8 mph - N/A   Scattered Clouds
12:53 PM 64.0 °F 54.0 °F 70% 29.56 in 10.0 mi East 6.9 mph - N/A   Partly Cloudy
1:53 PM 68.0 °F 55.0 °F 63% 29.53 in 10.0 mi ENE 9.2 mph - N/A   Partly Cloudy
2:11 PM 66.0 °F 53.1 °F 63% 29.53 in 10.0 mi East 8.1 mph - 0.00 in Rain , Thunderstorm Light Rain
2:25 PM 64.9 °F 55.0 °F 70% 29.53 in 9.0 mi SE 6.9 mph - 0.01 in Rain , Thunderstorm Light Thunderstorms and Rain
2:45 PM 69.1 °F 48.0 °F 47% 29.52 in 10.0 mi SSE 8.1 mph - 0.01 in Thunderstorm Partly Cloudy
2:53 PM 70.0 °F 48.9 °F 47% 29.52 in 10.0 mi SSE 12.7 mph 16.1 mph 0.01 in Thunderstorm Clear
3:08 PM 71.1 °F 46.9 °F 42% 29.51 in 10.0 mi SE 8.1 mph - N/A   Clear
3:30 PM 66.9 °F 48.0 °F 51% 29.52 in 10.0 mi SSE 11.5 mph - 0.01 in Rain , Thunderstorm Light Rain
3:37 PM 66.9 °F 44.1 °F 44% 29.53 in 10.0 mi North - - 0.01 in Rain , Thunderstorm Light Thunderstorms and Rain
3:53 PM 60.1 °F 48.9 °F 67% 29.56 in 10.0 mi West 18.4 mph 34.5 mph 0.03 in Rain , Thunderstorm Light Thunderstorms and Rain
4:38 PM 61.0 °F 51.1 °F 70% 29.56 in 10.0 mi WSW 10.4 mph - 0.10 in   Scattered Clouds
4:53 PM 63.0 °F 52.0 °F 67% 29.57 in 10.0 mi WSW 11.5 mph - 0.10 in   Clear
6:53 PM 60.1 °F 46.0 °F 60% 29.65 in 10.0 mi WSW 15.0 mph - N/A   Clear
7:53 PM 57.0 °F 46.0 °F 67% 29.62 in 10.0 mi WNW 4.6 mph - 0.00 in Rain Light Rain
8:53 PM 55.9 °F 46.0 °F 69% 29.65 in 10.0 mi Calm Calm - 0.00 in   Overcast
9:53 PM 54.0 °F 48.9 °F 83% 29.67 in 10.0 mi Calm Calm - 0.07 in Rain Light Rain
11:53 PM 51.1 °F 46.9 °F 86% 29.70 in 10.0 mi NE 3.5 mph - N/A   Clear